• In Hungary
  • List of Countries
  • For 7 days
  • Water Temperature
  • Satellite Maps
  • Weather Map
  • News
  • Weather Widgets
  • user-avatar
    Login

    Hourly Weather Ersi

    Today, 23 September, Sunday

    Time Temperature Precipitation Wind Pressure Humidity
    00:00 +19°C° 0 mm 1 mps 717 mmHg 78%
    01:00 +19°C° 0 mm 1 mps 717 mmHg 79%
    02:00 +19°C° 0 mm 1 mps 716 mmHg 79%
    03:00 +19°C° 0 mm 1 mps 716 mmHg 79%
    04:00 +19°C° 0.1 mm 1 mps 716 mmHg 80%
    05:00 +19°C° 0.1 mm 1 mps 716 mmHg 80%
    06:00 +19°C° 0.1 mm 1 mps 716 mmHg 81%
    07:00 +19°C° 0.3 mm 2 mps 716 mmHg 76%
    08:00 +20°C° 0.3 mm 2 mps 716 mmHg 72%
    09:00 +22°C° 0 mm 3 mps 716 mmHg 67%
    10:00 +22°C° 0.1 mm 3 mps 716 mmHg 65%
    11:00 +23°C° 0.1 mm 4 mps 716 mmHg 63%
    12:00 +25°C° 0.1 mm 4 mps 716 mmHg 61%
    13:00 +23°C° 0.4 mm 4 mps 716 mmHg 62%
    14:00 +23°C° 0.4 mm 4 mps 716 mmHg 64%
    15:00 +23°C° 0 mm 4 mps 716 mmHg 67%
    16:00 +22°C° 0.4 mm 4 mps 716 mmHg 73%
    17:00 +20°C° 0.4 mm 3 mps 716 mmHg 79%
    18:00 +19°C° 0.4 mm 2 mps 716 mmHg 85%
    19:00 +19°C° 0 mm 2 mps 716 mmHg 83%
    20:00 +19°C° 0 mm 2 mps 716 mmHg 82%
    21:00 +18°C° 0 mm 2 mps 716 mmHg 81%
    22:00 +18°C° 0 mm 2 mps 716 mmHg 78%
    23:00 +18°C° 0 mm 2 mps 716 mmHg 76%

    Tomorrow, 24 September, Monday

    Time Temperature Precipitation Wind Pressure Humidity
    00:00 +18°C° 0 mm 2 mps 716 mmHg 73%
    01:00 +18°C° 0 mm 2 mps 716 mmHg 71%
    02:00 +18°C° 0 mm 2 mps 716 mmHg 68%
    03:00 +17°C° 0 mm 2 mps 716 mmHg 65%
    04:00 +17°C° 0 mm 2 mps 716 mmHg 63%
    05:00 +17°C° 0 mm 2 mps 716 mmHg 61%
    06:00 +17°C° 0 mm 2 mps 716 mmHg 59%
    07:00 +19°C° 0 mm 2 mps 717 mmHg 55%
    08:00 +23°C° 0 mm 2 mps 717 mmHg 51%
    09:00 +25°C° 0 mm 2 mps 718 mmHg 47%
    10:00 +25°C° 0 mm 2 mps 718 mmHg 46%
    11:00 +26°C° 0 mm 3 mps 718 mmHg 45%
    12:00 +26°C° 0 mm 3 mps 718 mmHg 44%
    13:00 +26°C° 0 mm 3 mps 718 mmHg 47%
    14:00 +26°C° 0 mm 3 mps 718 mmHg 49%
    15:00 +26°C° 0 mm 2 mps 718 mmHg 51%
    16:00 +24°C° 0 mm 2 mps 718 mmHg 58%
    17:00 +21°C° 0 mm 2 mps 717 mmHg 65%
    18:00 +20°C° 0 mm 1 mps 717 mmHg 72%
    19:00 +19°C° 0 mm 2 mps 717 mmHg 71%
    20:00 +19°C° 0 mm 2 mps 717 mmHg 71%
    21:00 +19°C° 0 mm 2 mps 717 mmHg 70%
    22:00 +19°C° 0 mm 2 mps 717 mmHg 69%
    23:00 +19°C° 0 mm 2 mps 717 mmHg 68%

    Day after tomorrow, 25 September, Tuesday

    Time Temperature Precipitation Wind Pressure Humidity
    00:00 +19°C° 0 mm 3 mps 716 mmHg 67%
    01:00 +18°C° 0 mm 3 mps 716 mmHg 66%
    02:00 +18°C° 0 mm 3 mps 716 mmHg 64%
    03:00 +18°C° 0 mm 3 mps 715 mmHg 63%
    04:00 +18°C° 0 mm 3 mps 715 mmHg 61%
    05:00 +18°C° 0 mm 3 mps 715 mmHg 60%
    06:00 +18°C° 0 mm 4 mps 714 mmHg 58%
    07:00 +21°C° 0 mm 3 mps 715 mmHg 51%
    08:00 +25°C° 0 mm 3 mps 715 mmHg 45%
    09:00 +27°C° 0 mm 3 mps 715 mmHg 38%
    10:00 +28°C° 0 mm 3 mps 714 mmHg 37%
    11:00 +29°C° 0 mm 3 mps 714 mmHg 36%
    12:00 +30°C° 0 mm 4 mps 713 mmHg 36%
    13:00 +30°C° 0 mm 4 mps 713 mmHg 37%
    14:00 +30°C° 0 mm 4 mps 713 mmHg 39%
    15:00 +30°C° 0 mm 4 mps 712 mmHg 41%
    16:00 +27°C° 0 mm 3 mps 712 mmHg 50%
    17:00 +25°C° 0 mm 2 mps 712 mmHg 59%
    18:00 +23°C° 0 mm 2 mps 712 mmHg 69%
    19:00 +21°C° 0 mm 2 mps 713 mmHg 68%
    20:00 +21°C° 0 mm 2 mps 713 mmHg 67%
    21:00 +21°C° 0 mm 2 mps 714 mmHg 66%
    22:00 +21°C° 0 mm 2 mps 714 mmHg 66%
    23:00 +21°C° 0 mm 2 mps 714 mmHg 66%

    26 September, Wednesday

    Time Temperature Precipitation Wind Pressure Humidity
    00:00 +21°C° 0 mm 2 mps 714 mmHg 66%
    01:00 +20°C° 0 mm 2 mps 714 mmHg 68%
    02:00 +20°C° 0 mm 3 mps 714 mmHg 70%
    03:00 +19°C° 0 mm 3 mps 714 mmHg 71%
    04:00 +19°C° 0 mm 4 mps 715 mmHg 76%
    05:00 +17°C° 0 mm 5 mps 715 mmHg 80%
    06:00 +17°C° 0 mm 5 mps 716 mmHg 84%
    07:00 +19°C° 0 mm 6 mps 716 mmHg 79%
    08:00 +20°C° 0 mm 6 mps 717 mmHg 74%
    09:00 +21°C° 0 mm 7 mps 717 mmHg 69%
    10:00 +20°C° 0 mm 7 mps 718 mmHg 69%
    11:00 +20°C° 0 mm 7 mps 718 mmHg 70%
    12:00 +20°C° 0 mm 7 mps 718 mmHg 70%
    13:00 +18°C° 0 mm 7 mps 718 mmHg 71%
    14:00 +19°C° 0 mm 6 mps 718 mmHg 72%
    15:00 +17°C° 0 mm 6 mps 718 mmHg 74%
    16:00 +16°C° 0 mm 5 mps 718 mmHg 77%
    17:00 +15°C° 0 mm 5 mps 719 mmHg 81%
    18:00 +14°C° 0 mm 4 mps 719 mmHg 84%
    19:00 +14°C° 0 mm 4 mps 719 mmHg 84%
    20:00 +14°C° 0 mm 4 mps 720 mmHg 85%
    21:00 +13°C° 0 mm 3 mps 720 mmHg 85%
    22:00 +13°C° 0 mm 3 mps 720 mmHg 85%
    23:00 +13°C° 0 mm 3 mps 720 mmHg 85%

    27 September, Thursday

    Time Temperature Precipitation Wind Pressure Humidity
    00:00 +13°C° 0 mm 3 mps 720 mmHg 85%
    01:00 +13°C° 0 mm 3 mps 720 mmHg 85%
    02:00 +12°C° 0 mm 3 mps 720 mmHg 86%
    03:00 +12°C° 0 mm 3 mps 720 mmHg 86%
    04:00 +12°C° 0 mm 3 mps 720 mmHg 86%
    05:00 +12°C° 0 mm 3 mps 720 mmHg 85%
    06:00 +13°C° 0 mm 2 mps 720 mmHg 85%
    07:00 +14°C° 0 mm 3 mps 720 mmHg 78%
    08:00 +16°C° 0 mm 3 mps 721 mmHg 71%
    09:00 +18°C° 0 mm 3 mps 721 mmHg 64%
    10:00 +19°C° 0 mm 4 mps 721 mmHg 62%
    11:00 +19°C° 0 mm 4 mps 721 mmHg 60%
    12:00 +20°C° 0 mm 4 mps 721 mmHg 59%
    13:00 +20°C° 0 mm 4 mps 721 mmHg 61%
    14:00 +19°C° 0 mm 4 mps 720 mmHg 63%
    15:00 +19°C° 0 mm 3 mps 720 mmHg 65%
    16:00 +17°C° 0 mm 3 mps 720 mmHg 72%
    17:00 +16°C° 0 mm 2 mps 720 mmHg 79%
    18:00 +15°C° 0 mm 1 mps 721 mmHg 85%
    19:00 +14°C° 0 mm 1 mps 721 mmHg 85%
    20:00 +14°C° 0 mm 1 mps 721 mmHg 85%
    21:00 +14°C° 0 mm 1 mps 721 mmHg 85%
    22:00 +14°C° 0 mm 1 mps 721 mmHg 84%
    23:00 +14°C° 0 mm 1 mps 721 mmHg 82%

    28 September, Friday

    Time Temperature Precipitation Wind Pressure Humidity
    00:00 +14°C° 0 mm 1 mps 721 mmHg 81%
    01:00 +14°C° 0 mm 1 mps 721 mmHg 80%
    02:00 +14°C° 0 mm 1 mps 721 mmHg 78%
    03:00 +14°C° 0 mm 1 mps 721 mmHg 77%
    04:00 +14°C° 0 mm 1 mps 721 mmHg 75%
    05:00 +14°C° 0 mm 1 mps 721 mmHg 74%
    06:00 +14°C° 0 mm 1 mps 721 mmHg 73%
    07:00 +16°C° 0 mm 2 mps 721 mmHg 67%
    08:00 +18°C° 0 mm 2 mps 721 mmHg 61%
    09:00 +20°C° 0 mm 3 mps 722 mmHg 55%
    10:00 +21°C° 0 mm 3 mps 721 mmHg 54%
    11:00 +22°C° 0 mm 4 mps 721 mmHg 53%
    12:00 +23°C° 0 mm 4 mps 721 mmHg 52%
    13:00 +23°C° 0 mm 5 mps 720 mmHg 54%
    14:00 +23°C° 0 mm 5 mps 720 mmHg 56%
    15:00 +23°C° 0 mm 5 mps 719 mmHg 58%
    16:00 +21°C° 0 mm 5 mps 719 mmHg 66%
    17:00 +19°C° 0 mm 5 mps 719 mmHg 74%
    18:00 +18°C° 0 mm 4 mps 719 mmHg 81%
    19:00 +17°C° 0 mm 4 mps 719 mmHg 80%
    20:00 +17°C° 0 mm 4 mps 719 mmHg 78%
    21:00 +17°C° 0 mm 4 mps 718 mmHg 76%
    22:00 +17°C° 0 mm 4 mps 718 mmHg 74%
    23:00 +17°C° 0 mm 4 mps 718 mmHg 72%
    Show more